Regional Weather Roundup
Issued by NWS

Home | Current Version | Previous Version | Graphics & Text | Print | Product List | Glossary On
Versions: 1 2 3 4 5 6 7 8 9 10 11 12 13 14 15 16 17 18 19 20 21 22 23 24 25 26 27 28 29 30 31 32 33 34 35 36 37 38 39 40 41 42 43 44 45 46
000
ASUS45 KCYS 271910
RWRWY

WYOMING REGIONAL WEATHER ROUNDUP
NATIONAL WEATHER SERVICE CHEYENNE WY
100 PM MDT THU AUG 27 2015

NOTE:  "FAIR" INDICATES FEW OR NO CLOUDS BELOW 12,000 FEET
WITH NO SIGNIFICANT WEATHER AND/OR OBSTRUCTIONS TO VISIBILITY.

WYZ001-272000-
YELLOWSTONE NATIONAL PARK

CITY           SKY/WX    TMP DP  RH WIND       PRES   REMARKS
LK YELLOWSTONE   N/A     61  48  62 VRB3      30.44F
W YELLOWSTONE  NOT AVBL

$$
WYZ002>013-054>058-071-098>099-272000-
NORTHERN WYOMING

CITY           SKY/WX    TMP DP  RH WIND       PRES   REMARKS
JACKSON        CLOUDY    59  54  82 NW7       30.38S
CODY           FAIR      79  45  29 SW5       30.17F
GREYBULL       FAIR      77  53  43 SE8       30.14F
WORLAND        FAIR      73  59  61 NE7       30.16F
SHERIDAN       FAIR      88  46  23 W5        30.07S
BUFFALO        FAIR      78  47  33 S7        30.15F
GILLETTE       FAIR      80  51  36 VRB7      30.10F
HULETT         FAIR      77  52  41 SE3       30.10F
NEWCASTLE      FAIR      75  46  35 MISG      30.09F

$$
WYZ014>020-022>026-101>103-272000-
CENTRAL WYOMING

CITY           SKY/WX    TMP DP  RH WIND       PRES   REMARKS
BIG PINEY      FAIR      77  45  32 N13G21    30.34F
PINEDALE       FAIR      72  48  43 W20       30.34F
DUBOIS         MOCLDY    73  41  31 NW12G21   30.30F
LANDER         PTSUNNY   79  47  32 N12G20    30.21F
RIVERTON       FAIR      73  51  46 VRB5      30.23F
CASPER         FAIR      77  46  33 W5        30.20F
DOUGLAS        FAIR      78  48  34 NW9       30.16F

$$
WYZ021-027>030-104>119-272000-
SOUTHERN WYOMING

CITY           SKY/WX    TMP DP  RH WIND       PRES   REMARKS
EVANSTON       FAIR      74  50  42 W10       30.39F
KEMMERER       FAIR      72  45  37 NW16G28   30.39F
FORT BRIDGER   PTCLDY    75  48  38 NW12G20   30.40S
ROCK SPRINGS   FAIR      74  50  42 W15       30.32F
DIXON          CLOUDY    70  53  54 W13       30.33F
RAWLINS        CLOUDY    65  56  72 N6        30.31F
SARATOGA       CLOUDY    61  55  82 N13       30.33S
LARAMIE        LGT RAIN  62  50  64 N8        30.31F
CHEYENNE       FAIR      76  48  37 NW13G23   30.19F
TORRINGTON     PTSUNNY   78  57  48 N13G23    30.06F
PINE BLUFFS    FAIR      79  46  31 N23G30    30.12S

$$



USA.gov is the U.S. government's official web portal to all federal, state and local government web resources and services.